timestamp,wind_dir_avg,wind_spd_avg,wind_spd_max_dir,wind_spd_gust,battery_voltage,lat,long
2023-09-04 00:04:01+00:00,226.0,9.16,227.0,10.64,12.49,47.59359,-54.27349
2023-09-04 00:14:01+00:00,224.0,9.51,220.0,10.58,12.41,47.59359,-54.27349
2023-09-04 00:24:01+00:00,227.0,8.35,227.0,9.96,12.41,47.59359,-54.27349
2023-09-04 00:34:01+00:00,231.0,7.12,238.0,8.52,12.41,47.59359,-54.27349
2023-09-04 00:44:01+00:00,227.0,7.57,223.0,8.58,12.41,47.59359,-54.27349
2023-09-04 00:54:01+00:00,222.0,9.14,224.0,10.14,12.41,47.59359,-54.27349
2023-09-04 01:04:01+00:00,225.0,8.32,224.0,9.67,12.41,47.59359,-54.27349
2023-09-04 01:14:01+00:00,223.0,7.87,217.0,9.07,12.41,47.59359,-54.27349
2023-09-04 01:24:01+00:00,229.0,7.91,226.0,9.52,12.41,47.59359,-54.27349
2023-09-04 01:34:01+00:00,227.0,7.84,231.0,9.19,12.41,47.59359,-54.27349
2023-09-04 01:44:01+00:00,232.0,7.51,231.0,8.79,12.41,47.59359,-54.27349
2023-09-04 01:54:01+00:00,231.0,6.83,231.0,7.87,12.41,47.59359,-54.27349
2023-09-04 02:04:01+00:00,233.0,6.97,234.0,8.08,12.41,47.59359,-54.27349
2023-09-04 02:14:00+00:00,232.0,7.63,240.0,9.16,12.41,47.59359,-54.27349
2023-09-04 02:24:00+00:00,234.0,7.51,229.0,8.74,12.41,47.59359,-54.27349
2023-09-04 02:34:00+00:00,230.0,8.72,229.0,10.06,12.41,47.59359,-54.27349
2023-09-04 02:44:00+00:00,234.0,8.58,240.0,10.14,12.41,47.59359,-54.27349
2023-09-04 02:54:00+00:00,229.0,8.02,227.0,9.84,12.41,47.59359,-54.27349
2023-09-04 03:04:00+00:00,224.0,9.71,221.0,10.94,12.41,47.59359,-54.27349
2023-09-04 03:14:00+00:00,216.0,9.04,218.0,10.48,12.41,47.59359,-54.27349
2023-09-04 03:24:00+00:00,219.0,8.04,221.0,9.37,12.41,47.59359,-54.27349
2023-09-04 03:34:00+00:00,224.0,8.69,219.0,10.33,12.41,47.59359,-54.27349
2023-09-04 03:44:00+00:00,225.0,8.73,227.0,9.55,12.41,47.59359,-54.27349
2023-09-04 03:54:00+00:00,228.0,8.51,225.0,9.47,12.41,47.59359,-54.27349
2023-09-04 04:04:00+00:00,226.0,8.19,223.0,10.14,12.41,47.59359,-54.27349
2023-09-04 04:14:00+00:00,230.0,7.98,229.0,8.95,12.41,47.59359,-54.27349
2023-09-04 04:24:00+00:00,231.0,8.59,224.0,10.22,12.41,47.59359,-54.27349
2023-09-04 04:34:00+00:00,230.0,7.74,224.0,9.69,12.41,47.59359,-54.27349
2023-09-04 04:44:00+00:00,235.0,7.35,237.0,8.96,12.41,47.59359,-54.27349
2023-09-04 04:54:00+00:00,233.0,6.65,245.0,8.34,12.41,47.59359,-54.27349
2023-09-04 05:04:00+00:00,232.0,7.2,230.0,8.16,12.41,47.59359,-54.27349
2023-09-04 05:14:00+00:00,233.0,7.36,233.0,8.52,12.41,47.59359,-54.27349
2023-09-04 05:24:00+00:00,232.0,7.52,232.0,8.73,12.41,47.59359,-54.27349
2023-09-04 05:34:00+00:00,237.0,7.03,247.0,8.43,12.41,47.59359,-54.27349
2023-09-04 05:44:00+00:00,234.0,7.28,238.0,8.44,12.41,47.59359,-54.27349
2023-09-04 05:54:00+00:00,239.0,6.99,240.0,7.98,12.41,47.59359,-54.27349
2023-09-04 06:04:00+00:00,235.0,7.91,236.0,8.5,12.41,47.59359,-54.27349
2023-09-04 06:14:00+00:00,234.0,6.07,239.0,7.52,12.41,47.59359,-54.27349
2023-09-04 06:24:00+00:00,235.0,5.98,239.0,7.46,12.41,47.59359,-54.27349
2023-09-04 06:34:00+00:00,235.0,6.73,234.0,8.1,12.41,47.59359,-54.27349
2023-09-04 06:44:00+00:00,238.0,6.79,240.0,7.37,12.41,47.59359,-54.27349
2023-09-04 06:54:00+00:00,243.0,6.07,241.0,6.57,12.41,47.59359,-54.27349
2023-09-04 07:04:00+00:00,236.0,4.87,240.0,6.03,12.41,47.59359,-54.27349
2023-09-04 07:14:00+00:00,244.0,5.85,246.0,6.44,12.33,47.59359,-54.27349
2023-09-04 07:24:00+00:00,250.0,5.4,251.0,6.16,12.33,47.59359,-54.27349
2023-09-04 07:34:00+00:00,250.0,4.48,248.0,4.95,12.33,47.59359,-54.27349
2023-09-04 07:44:00+00:00,249.0,4.61,251.0,5.15,12.33,47.59359,-54.27349
2023-09-04 07:54:00+00:00,247.0,3.72,245.0,4.35,12.33,47.59359,-54.27349
2023-09-04 08:04:00+00:00,234.0,3.34,235.0,3.76,12.33,47.59359,-54.27349
2023-09-04 08:14:01+00:00,233.0,3.65,234.0,4.34,12.33,47.59359,-54.27349
2023-09-04 08:24:01+00:00,237.0,4.26,235.0,4.89,12.33,47.59359,-54.27349
2023-09-04 08:34:01+00:00,238.0,3.53,238.0,4.01,12.33,47.59359,-54.27349
2023-09-04 08:44:01+00:00,225.0,2.46,228.0,3.0,12.33,47.59359,-54.27349
2023-09-04 08:54:01+00:00,227.0,3.06,230.0,3.36,12.33,47.59359,-54.27349
2023-09-04 09:04:01+00:00,216.0,3.11,213.0,3.51,12.33,47.59359,-54.27349
2023-09-04 09:14:00+00:00,197.0,3.74,196.0,4.47,12.25,47.59359,-54.27349
2023-09-04 09:24:00+00:00,200.0,4.7,197.0,5.02,12.25,47.59359,-54.27349
2023-09-04 09:34:00+00:00,208.0,5.22,209.0,5.62,12.25,47.59359,-54.27349
2023-09-04 09:44:00+00:00,212.0,5.05,214.0,5.86,12.25,47.59359,-54.27349
2023-09-04 09:54:00+00:00,225.0,5.43,228.0,6.09,12.25,47.59359,-54.27349
2023-09-04 10:04:00+00:00,214.0,3.99,216.0,4.65,12.25,47.59359,-54.27349
2023-09-04 10:14:00+00:00,220.0,4.21,225.0,4.62,12.41,47.59359,-54.27349
2023-09-04 10:24:00+00:00,233.0,3.28,246.0,4.15,12.41,47.59359,-54.27349
2023-09-04 10:34:00+00:00,226.0,3.74,233.0,4.8,12.41,47.59359,-54.27349
2023-09-04 10:44:00+00:00,229.0,2.81,218.0,3.18,12.41,47.59359,-54.27349
2023-09-04 10:54:00+00:00,233.0,2.85,233.0,3.24,12.41,47.59359,-54.27349
2023-09-04 11:04:00+00:00,221.0,2.65,220.0,2.98,12.41,47.59359,-54.27349
2023-09-04 11:14:01+00:00,220.0,2.46,228.0,2.76,13.44,47.59359,-54.27349
2023-09-04 11:24:01+00:00,218.0,3.23,214.0,3.82,13.44,47.59359,-54.27349
2023-09-04 11:34:01+00:00,232.0,2.48,230.0,3.18,13.44,47.59359,-54.27349
2023-09-04 11:44:01+00:00,229.0,2.24,229.0,2.52,13.44,47.59359,-54.27349
2023-09-04 11:54:01+00:00,220.0,3.39,229.0,3.99,13.44,47.59359,-54.27349
2023-09-04 12:04:01+00:00,209.0,4.08,216.0,4.38,13.44,47.59359,-54.27349
2023-09-04 12:14:00+00:00,214.0,3.54,215.0,4.2,14.0,47.59359,-54.27349
2023-09-04 12:24:00+00:00,208.0,4.46,214.0,4.9,14.0,47.59359,-54.27349
2023-09-04 12:34:00+00:00,214.0,4.36,217.0,5.02,14.0,47.59359,-54.27349
2023-09-04 12:44:00+00:00,209.0,4.7,212.0,5.06,14.0,47.59359,-54.27349
2023-09-04 12:54:00+00:00,206.0,5.02,205.0,5.96,14.0,47.59359,-54.27349
2023-09-04 13:04:00+00:00,205.0,5.12,207.0,5.8,14.0,47.59359,-54.27349
2023-09-04 13:14:00+00:00,205.0,5.82,209.0,6.41,14.32,47.59359,-54.27349
2023-09-04 13:24:00+00:00,208.0,5.57,208.0,6.07,14.32,47.59359,-54.27349
2023-09-04 13:34:00+00:00,205.0,6.2,206.0,6.71,14.32,47.59359,-54.27349
2023-09-04 13:44:00+00:00,206.0,6.05,204.0,6.82,14.32,47.59359,-54.27349
2023-09-04 13:54:00+00:00,202.0,6.25,203.0,6.67,14.32,47.59359,-54.27349
2023-09-04 14:04:00+00:00,205.0,4.98,212.0,5.85,14.32,47.59359,-54.27349
2023-09-04 14:14:01+00:00,213.0,6.07,214.0,6.67,14.08,47.59359,-54.27349
2023-09-04 14:24:01+00:00,213.0,5.11,214.0,5.85,14.08,47.59359,-54.27349
2023-09-04 14:34:01+00:00,205.0,4.7,208.0,5.55,14.08,47.59359,-54.27349
2023-09-04 14:44:01+00:00,200.0,4.82,199.0,5.28,14.08,47.59359,-54.27349
2023-09-04 14:54:01+00:00,204.0,4.84,206.0,5.26,14.08,47.59359,-54.27349
2023-09-04 15:04:01+00:00,208.0,5.41,209.0,5.75,14.08,47.59359,-54.27349
2023-09-04 15:14:01+00:00,210.0,4.87,211.0,5.21,14.16,47.59359,-54.27349
2023-09-04 15:24:01+00:00,217.0,4.4,218.0,4.96,14.16,47.59359,-54.27349
2023-09-04 15:34:01+00:00,221.0,4.2,222.0,4.52,14.16,47.59359,-54.27349
2023-09-04 15:44:01+00:00,237.0,3.04,233.0,3.32,14.16,47.59359,-54.27349
2023-09-04 15:54:01+00:00,236.0,2.76,238.0,3.14,14.16,47.59359,-54.27349
2023-09-04 16:04:01+00:00,237.0,2.15,237.0,2.67,14.16,47.59359,-54.27349
2023-09-04 16:14:00+00:00,241.0,2.0,234.0,2.57,13.92,47.59359,-54.27349
2023-09-04 16:24:00+00:00,243.0,1.5,249.0,1.68,13.92,47.59359,-54.27349
2023-09-04 16:34:00+00:00,263.0,1.54,268.0,1.77,13.92,47.59359,-54.27349
2023-09-04 16:44:00+00:00,261.0,1.94,259.0,2.14,13.92,47.59359,-54.27349
2023-09-04 16:54:00+00:00,244.0,2.36,247.0,2.65,13.92,47.59359,-54.27349
2023-09-04 17:04:00+00:00,240.0,2.32,240.0,2.56,13.92,47.59359,-54.27349
2023-09-04 17:14:01+00:00,247.0,2.25,248.0,2.51,13.76,47.59359,-54.27349
2023-09-04 17:24:01+00:00,253.0,1.99,252.0,2.15,13.76,47.59359,-54.27349
2023-09-04 17:34:01+00:00,270.0,2.16,271.0,2.51,13.76,47.59359,-54.27349
2023-09-04 17:44:01+00:00,257.0,1.4,257.0,1.55,13.76,47.59359,-54.27349
2023-09-04 17:54:01+00:00,247.0,1.6,247.0,1.73,13.76,47.59359,-54.27349
2023-09-04 18:04:01+00:00,247.0,1.9,249.0,2.09,13.76,47.59359,-54.27349
2023-09-04 18:14:01+00:00,246.0,1.59,246.0,1.71,13.68,47.59359,-54.27349
2023-09-04 18:24:01+00:00,311.0,1.92,313.0,2.08,13.68,47.59359,-54.27349
2023-09-04 18:34:01+00:00,315.0,1.61,316.0,1.77,13.68,47.59359,-54.27349
2023-09-04 18:44:01+00:00,323.0,1.39,324.0,1.47,13.68,47.59359,-54.27349
2023-09-04 18:54:01+00:00,315.0,0.97,319.0,1.05,13.68,47.59359,-54.27349
2023-09-04 19:04:01+00:00,283.0,0.73,284.0,0.8,13.68,47.59359,-54.27349
2023-09-04 19:14:00+00:00,324.0,1.12,327.0,1.24,13.6,47.59359,-54.27349
2023-09-04 19:24:00+00:00,337.0,1.39,343.0,1.79,13.6,47.59359,-54.27349
2023-09-04 19:34:00+00:00,357.0,1.12,356.0,1.21,13.6,47.59359,-54.27349
2023-09-04 19:44:00+00:00,34.0,1.05,37.0,1.32,13.6,47.59359,-54.27349
2023-09-04 19:54:00+00:00,35.0,1.19,34.0,1.54,13.6,47.59359,-54.27349
2023-09-04 20:04:00+00:00,22.0,2.13,21.0,2.36,13.6,47.59359,-54.27349
2023-09-04 20:14:00+00:00,12.0,2.98,14.0,3.26,13.68,47.59359,-54.27349
2023-09-04 20:24:00+00:00,7.0,3.27,5.0,3.65,13.68,47.59359,-54.27349
2023-09-04 20:34:00+00:00,15.0,3.31,15.0,3.69,13.68,47.59359,-54.27349
2023-09-04 20:44:00+00:00,12.0,3.06,15.0,3.58,13.68,47.59359,-54.27349
2023-09-04 20:54:00+00:00,15.0,2.24,21.0,2.59,13.68,47.59359,-54.27349
2023-09-04 21:04:00+00:00,15.0,2.51,15.0,2.74,13.68,47.59359,-54.27349
2023-09-04 21:14:01+00:00,29.0,2.54,32.0,2.67,13.37,47.59359,-54.27349
2023-09-04 21:24:01+00:00,44.0,2.87,44.0,3.11,13.37,47.59359,-54.27349
2023-09-04 21:34:01+00:00,65.0,2.77,59.0,3.11,13.37,47.59359,-54.27349
2023-09-04 21:44:01+00:00,49.0,2.31,52.0,2.59,13.37,47.59359,-54.27349
2023-09-04 21:54:01+00:00,53.0,2.6,54.0,2.9,13.37,47.59359,-54.27349
2023-09-04 22:04:01+00:00,51.0,2.24,53.0,2.61,13.37,47.59359,-54.27349
2023-09-04 22:14:01+00:00,56.0,2.27,53.0,2.77,12.81,47.59359,-54.27349
2023-09-04 22:24:01+00:00,87.0,2.35,90.0,2.75,12.81,47.59359,-54.27349
2023-09-04 22:34:01+00:00,65.0,1.51,67.0,1.72,12.81,47.59359,-54.27349
2023-09-04 22:44:01+00:00,74.0,1.52,82.0,1.93,12.81,47.59359,-54.27349
2023-09-04 22:54:01+00:00,59.0,1.07,65.0,1.15,12.81,47.59359,-54.27349
2023-09-04 23:04:01+00:00,53.0,1.56,51.0,1.66,12.81,47.59359,-54.27349
2023-09-04 23:14:00+00:00,80.0,2.19,78.0,2.33,12.49,47.59359,-54.27349
2023-09-04 23:24:00+00:00,50.0,1.69,53.0,1.85,12.49,47.59359,-54.27349
2023-09-04 23:34:00+00:00,87.0,1.6,88.0,1.81,12.49,47.59359,-54.27349
2023-09-04 23:44:00+00:00,51.0,1.4,58.0,1.66,12.49,47.59359,-54.27349
2023-09-04 23:54:00+00:00,43.0,1.81,44.0,1.91,12.49,47.59359,-54.27349
